Location: Hopewell Observatory
(38.8698°N, 77.6988°W)
Time: 18:59:38
(UTC-04:00)

Cosmos 192 - Pass Details

Date: 26 May 2018
Orbit: 702 x 712 km, 74.0° (Epoch: 18 October)

Event Time Altitude Azimuth Distance (km) Brightness Sun altitude
Exits shadow 23:16:23 75° 108° (ESE) 731 4.2 -24.4°
Maximum altitude 23:16:24 75° 106° (ESE) 731 4.2 -24.4°
Drops below altitude 10° 23:21:18 10° 22° (NNE) 2,179 7.3 -24.9°
Sets 23:23:38 0° 21° (NNE) 3,102 8.2 -25.1°
